Location: Pittsburgh
(40.4410°N, 79.9960°W)
Time: 08:29:20
(UTC-04:00)

BlueWalker 3 - Pass Details

Date: 17 March 2026
Orbit: 449 x 457 km, 53.2° (Epoch: 13 April)

Event Time Altitude Azimuth Distance (km) Brightness Sun altitude
Exits shadow 04:47:19 18° 64° (ENE) 1,191 4.6 -30.4°
Drops below altitude 10° 04:48:44 10° 82° (E) 1,595 5.3 -30.2°
Sets 04:51:09 0° 97° (E) 2,465 6.2 -29.8°
